Current weather by "City, St" or "zip code"  
 

Current Conditions: Greenville Downtown Airport, SC

Fair


73.0 F

Last Updated on Oct 29 2020, 9:53 pm EDT
Humidity: 57%
Wind Speed: W 19.6 G 28.8 mph
Barometer 29.58 in
Dewpoint: 57.0 F
Visibility: 10.00 mi
Precip: --
Heat Index: NA
Wind Chill: NA
Current conditions at:

Greenville Downtown Airport, SC (KGMU)

Lat: 34.84873 Lon: 82.35004

Local Radar Image active severe weather and emergency alerts image image weather storm and storm spotter reports image weather observation monitoring service image
Local
Radar
Active
Alerts
Storm Reports Obs
Monitoring

Sign-up For Email & Text Message Weather Alert Notification Services



Advertise Here

Observation History for Greenville Downtown Airport, SC


Time Wind
(mph)
Vis
(mi)
Weather Precip (in) Temperature (F) Relative
Humidity
Wind
Chill
(F)
Heat
Index
(F)
Pressure
Air Dwpt altimeter
(in)
sea level
(mb)
Rmks
9:53 pm EDT W 19.6 G 28.8 10.00 Fair -- 73.0 57.0 57% NA NA 29.58 1000.8
8:53 pm EDT SW 11.5 10.00 Fair -- 73.0 64.0 74% NA NA 29.57 1000.5
7:53 pm EDT SW 9.2 10.00 Fair -- 74.0 64.9 74% NA NA 29.58 1000.8
6:53 pm EDT S 15.0 G 23.0 10.00 Overcast Trace 77.0 68.0 74% NA NA 29.58 1000.6
5:53 pm EDT S 8.1 10.00 NULL -- 80.0 66.9 64% NA 82 29.59 1000.7
6:53 am EDT S 25.3 G 42.6 4.00 Rain Fog/Mist and Breezy 00.23 73.0 70.0 90% NA NA 29.57 1000.4
5:53 am EDT SE 12.7 G 20.7 4.00 Rain Fog/Mist 00.19 72.0 70.0 94% NA NA 29.66 1003.5
4:53 am EDT S 11.5 7.00 Light Rain 00.01 72.0 70.0 94% NA NA 29.76 1006.8
3:53 am EDT S 11.5 10.00 Overcast Trace 72.0 70.0 94% NA NA 29.82 1009.1
1:53 am EDT S 12.7 G 20.7 10.00 Overcast -- 72.0 69.1 91% NA NA 29.90 1011.7
12:53 am EDT S 13.8 10.00 Overcast -- 72.0 69.1 91% NA NA 29.92 1012.4
11:53 pm EDT SE 9.2 7.00 Overcast -- 71.0 69.1 94% NA NA 29.94 1013.1
10:53 pm EDT SE 5.8 4.00 Fog/Mist -- 70.0 68.0 93% NA NA 29.98 1014.3

Regional Weather Observation


Greer, Greenville-Spartanburg Airport, SC (KGSP)

Fair
72.0 F

Pickens County Airport, SC (KLQK)

Light Rain and Windy
71.0 F

Greenville-Donaldson Center Airport, SC (KGYH)

Fair
70.0 F

Asheville, Asheville Regional Airport, NC (KAVL)

Mostly Cloudy
68.0 F

Clemson, Clemson-Oconee County Airport, SC (KCEU)

Fair
68.0 F

Anderson, Anderson County Airport, SC (KAND)

Mostly Cloudy
70.0 F